Terminal Aerodrome Forecast
Issued by NWS Grand Junction, CO

Home | Current Version | Previous Version | Text Only | Print | Product List | Glossary On
Versions: 1 2 3 4 5 6 7 8 9 10 11 12 13 14 15 16 17 18 19 20 21 22 23 24 25 26 27 28 29 30 31 32 33 34 35 36 37 38 39 40 41 42 43 44
000
FTUS45 KGJT 292339
TAFGJT
TAF
KGJT 292339Z 3000/3024 29007KT P6SM SCT100
     FM300200 04006KT P6SM SCT110
     FM300900 11007KT P6SM FEW200
     FM301400 15007KT P6SM SCT250
     FM301900 28008KT P6SM FEW120 SCT200=

USA.gov is the U.S. government's official web portal to all federal, state and local government web resources and services.